TimeEDT,TemperatureF,Dew PointF,Humidity,Sea Level PressureIn,VisibilityMPH,Wind Direction,Wind SpeedMPH,Gust SpeedMPH,PrecipitationIn,Events,Conditions,WindDirDegrees,DateUTC
12:15 AM,78.8,73.4,83,30.05,10.0,South,4.6,-,N/A,,Mostly Cloudy,190,2013-08-28 04:15:00
12:35 AM,78.8,75.2,89,30.05,10.0,Calm,Calm,-,N/A,,Mostly Cloudy,0,2013-08-28 04:35:00
12:55 AM,78.8,77.0,94,30.05,10.0,Calm,Calm,-,N/A,,Scattered Clouds,0,2013-08-28 04:55:00
1:15 AM,78.8,75.2,89,30.05,10.0,Calm,Calm,-,N/A,,Scattered Clouds,0,2013-08-28 05:15:00
1:35 AM,77.0,73.4,89,30.04,10.0,Calm,Calm,-,N/A,,Scattered Clouds,0,2013-08-28 05:35:00
1:55 AM,78.8,75.2,89,30.04,10.0,Calm,Calm,-,N/A,,Scattered Clouds,0,2013-08-28 05:55:00
2:15 AM,78.8,75.2,89,30.04,10.0,Calm,Calm,-,N/A,,Scattered Clouds,0,2013-08-28 06:15:00
2:35 AM,77.0,71.6,83,30.03,10.0,North,3.5,-,N/A,,Clear,10,2013-08-28 06:35:00
2:55 AM,77.0,73.4,89,30.03,10.0,NNE,3.5,-,N/A,,Clear,20,2013-08-28 06:55:00
3:15 AM,75.2,71.6,89,30.03,10.0,Calm,Calm,-,N/A,,Clear,0,2013-08-28 07:15:00
3:35 AM,73.4,71.6,94,30.03,10.0,Calm,Calm,-,N/A,,Clear,0,2013-08-28 07:35:00
3:55 AM,73.4,71.6,94,30.02,10.0,Calm,Calm,-,N/A,,Clear,0,2013-08-28 07:55:00
4:15 AM,73.4,71.6,94,30.02,10.0,Calm,Calm,-,N/A,,Clear,0,2013-08-28 08:15:00
4:35 AM,73.4,71.6,94,30.01,10.0,Calm,Calm,-,N/A,,Clear,0,2013-08-28 08:35:00
4:55 AM,73.4,69.8,88,30.01,10.0,Calm,Calm,-,N/A,,Clear,0,2013-08-28 08:55:00
5:15 AM,73.4,71.6,94,30.01,10.0,Calm,Calm,-,N/A,,Clear,0,2013-08-28 09:15:00
5:35 AM,73.4,71.6,94,30.01,10.0,Calm,Calm,-,N/A,,Clear,0,2013-08-28 09:35:00
5:55 AM,73.4,71.6,94,30.01,10.0,Calm,Calm,-,N/A,,Clear,0,2013-08-28 09:55:00
6:15 AM,73.4,71.6,94,30.01,10.0,Calm,Calm,-,N/A,,Clear,0,2013-08-28 10:15:00
6:35 AM,73.4,71.6,94,30.02,10.0,NNW,3.5,-,N/A,,Clear,340,2013-08-28 10:35:00
6:55 AM,73.4,71.6,94,30.03,10.0,North,4.6,-,N/A,,Clear,360,2013-08-28 10:55:00
7:15 AM,73.4,71.6,94,30.04,10.0,North,4.6,-,N/A,,Clear,10,2013-08-28 11:15:00
7:35 AM,73.4,71.6,94,30.05,10.0,NNE,3.5,-,N/A,,Clear,30,2013-08-28 11:35:00
7:55 AM,73.4,71.6,94,30.05,10.0,Calm,Calm,-,N/A,,Clear,0,2013-08-28 11:55:00
8:15 AM,73.4,71.6,94,30.06,10.0,Calm,Calm,-,N/A,,Clear,0,2013-08-28 12:15:00
8:35 AM,77.0,71.6,83,30.06,10.0,Calm,Calm,-,N/A,,Clear,0,2013-08-28 12:35:00
8:55 AM,78.8,71.6,78,30.06,10.0,Calm,Calm,-,N/A,,Clear,0,2013-08-28 12:55:00
9:15 AM,80.6,71.6,74,30.07,10.0,Calm,Calm,-,N/A,,Clear,0,2013-08-28 13:15:00
9:35 AM,80.6,73.4,79,30.07,10.0,Calm,Calm,-,N/A,,Clear,0,2013-08-28 13:35:00
9:55 AM,80.6,73.4,79,30.07,10.0,Calm,Calm,-,N/A,,Clear,0,2013-08-28 13:55:00
10:15 AM,84.2,73.4,70,30.08,10.0,Calm,Calm,-,N/A,,Clear,0,2013-08-28 14:15:00
10:35 AM,84.2,73.4,70,30.08,10.0,Calm,Calm,-,N/A,,Clear,0,2013-08-28 14:35:00
10:55 AM,86.0,73.4,66,30.08,10.0,Calm,Calm,-,N/A,,Clear,0,2013-08-28 14:55:00
11:15 AM,87.8,73.4,62,30.08,7.0,Calm,Calm,-,N/A,,Clear,0,2013-08-28 15:15:00
11:35 AM,87.8,71.6,58,30.08,10.0,Calm,Calm,-,N/A,,Clear,0,2013-08-28 15:35:00
11:55 AM,87.8,68.0,52,30.08,10.0,Calm,Calm,-,N/A,,Clear,0,2013-08-28 15:55:00
12:15 PM,87.8,69.8,55,30.08,10.0,WNW,4.6,-,N/A,,Clear,300,2013-08-28 16:15:00
12:35 PM,87.8,71.6,58,30.08,10.0,North,6.9,-,N/A,,Clear,350,2013-08-28 16:35:00
12:55 PM,87.8,69.8,55,30.07,10.0,NW,3.5,-,N/A,,Clear,320,2013-08-28 16:55:00
1:15 PM,91.4,71.6,52,30.07,10.0,NW,4.6,-,N/A,,Clear,310,2013-08-28 17:15:00
1:35 PM,89.6,69.8,52,30.07,10.0,WSW,3.5,-,N/A,,Clear,250,2013-08-28 17:35:00
1:55 PM,91.4,71.6,52,30.06,10.0,WNW,3.5,-,N/A,,Clear,300,2013-08-28 17:55:00
2:15 PM,91.4,71.6,52,30.06,10.0,Calm,Calm,-,N/A,,Clear,0,2013-08-28 18:15:00
2:35 PM,91.4,69.8,49,30.05,10.0,NW,3.5,-,N/A,,Clear,310,2013-08-28 18:35:00
2:55 PM,91.4,69.8,49,30.04,10.0,NW,5.8,-,N/A,,Clear,320,2013-08-28 18:55:00
3:15 PM,95.0,71.6,47,30.03,10.0,NW,5.8,-,N/A,,Clear,310,2013-08-28 19:15:00
3:35 PM,95.0,71.6,47,30.03,10.0,West,5.8,-,N/A,,Clear,270,2013-08-28 19:35:00
3:55 PM,95.0,69.8,44,30.02,10.0,WNW,4.6,-,N/A,,Clear,290,2013-08-28 19:55:00
4:15 PM,95.0,71.6,47,30.01,10.0,WNW,5.8,-,N/A,,Clear,290,2013-08-28 20:15:00
4:35 PM,93.2,71.6,49,30.01,10.0,WNW,5.8,-,N/A,,Clear,300,2013-08-28 20:35:00
4:55 PM,95.0,69.8,44,30.00,10.0,North,5.8,-,N/A,,Clear,350,2013-08-28 20:55:00
5:15 PM,95.0,71.6,47,30.00,10.0,NNW,5.8,-,N/A,,Clear,330,2013-08-28 21:15:00
5:35 PM,91.4,69.8,49,30.00,10.0,NNW,8.1,-,N/A,,Clear,330,2013-08-28 21:35:00
5:55 PM,91.4,68.0,46,30.00,10.0,NNW,5.8,-,N/A,,Clear,330,2013-08-28 21:55:00
6:15 PM,91.4,69.8,49,30.00,10.0,NNW,6.9,-,N/A,,Clear,330,2013-08-28 22:15:00
6:35 PM,87.8,69.8,55,30.00,10.0,NNW,4.6,-,N/A,,Clear,340,2013-08-28 22:35:00
6:55 PM,87.8,69.8,55,30.00,10.0,NNW,3.5,-,N/A,,Clear,330,2013-08-28 22:55:00
7:15 PM,87.8,69.8,55,30.00,10.0,NNW,4.6,-,N/A,,Clear,330,2013-08-28 23:15:00
7:35 PM,86.0,69.8,58,30.00,10.0,North,3.5,-,N/A,,Clear,350,2013-08-28 23:35:00
7:55 PM,86.0,69.8,58,30.00,10.0,NNW,3.5,-,N/A,,Clear,340,2013-08-28 23:55:00
8:15 PM,86.0,69.8,58,30.01,10.0,Calm,Calm,-,N/A,,Clear,0,2013-08-29 00:15:00
8:35 PM,80.6,75.2,84,30.01,10.0,Calm,Calm,-,N/A,,Clear,0,2013-08-29 00:35:00
8:55 PM,80.6,77.0,89,30.01,10.0,Calm,Calm,-,N/A,,Clear,0,2013-08-29 00:55:00
9:15 PM,80.6,77.0,89,30.01,10.0,Calm,Calm,-,N/A,,Clear,0,2013-08-29 01:15:00
9:35 PM,80.6,73.4,79,30.02,10.0,Calm,Calm,-,N/A,,Clear,0,2013-08-29 01:35:00
9:55 PM,80.6,75.2,84,30.02,10.0,Calm,Calm,-,N/A,,Clear,0,2013-08-29 01:55:00
10:15 PM,78.8,75.2,89,30.03,10.0,Calm,Calm,-,N/A,,Clear,0,2013-08-29 02:15:00
10:35 PM,78.8,77.0,94,30.03,10.0,Calm,Calm,-,N/A,,Clear,0,2013-08-29 02:35:00
10:55 PM,78.8,77.0,94,30.03,10.0,Calm,Calm,-,N/A,,Clear,0,2013-08-29 02:55:00
11:15 PM,78.8,77.0,94,30.04,10.0,Calm,Calm,-,N/A,,Clear,0,2013-08-29 03:15:00
11:35 PM,78.8,77.0,94,30.04,10.0,Calm,Calm,-,N/A,,Clear,0,2013-08-29 03:35:00
11:55 PM,78.8,73.4,83,30.03,10.0,Calm,Calm,-,N/A,,Clear,0,2013-08-29 03:55:00